Brocton, IL

7:14 PM CST on February 10, 2016 (GMT -0600)
Edgar County

Weather History for KPRG - January, 2014

Change the Weather History Date:

Saturday, January 18, 2014

  Actual Average (KHUF) Record (KHUF)
Temperature  
Mean Temperature 17 °F 28 °F  
Max Temperature 31 °F 36 °F 65 °F (1990)
Min Temperature 3 °F 20 °F -16 °F (1977)
Degree Days  
Heating Degree Days 48 37  
Month to date heating degree days 666  
Since 1 July heating degree days 2777  
Cooling Degree Days 0 0  
Month to date cooling degree days 0  
Year to date cooling degree days 0  
Moisture  
Dew Point 17 °F    
Average Humidity 88    
Maximum Humidity 96    
Minimum Humidity 70    
Precipitation  
Precipitation 0.00 in 0.08 in 0.86 in (1969)
Month to date precipitation 1.67  
Year to date precipitation 1.67  
Sea Level Pressure  
Sea Level Pressure 29.85 in    
Wind  
Wind Speed 9 mph (South)    
Max Wind Speed 20 mph    
Max Gust Speed 24 mph    
Visibility 9 miles    
Events Snow    
T = Trace of Precipitation, MM = Missing Value Source: NWS Daily Summary

Daily Weather History Graph

Daily Weather History Graph

Search for Another Location

Airport or City:

Trip Planner

Search our weather history database for the weather conditions in past years. The results will help you decide how hot, cold, wet, or windy it might be!

Date:

Astronomy

Jan. 18, 2014 Rise Set
Actual Time 7:08 AM CST 4:54 PM CST
Civil Twilight 6:39 AM CST 5:23 PM CST
Nautical Twilight 6:06 AM CST 5:56 PM CST
Astronomical Twilight 5:33 AM CST 6:28 PM CST
Moon 7:35 PM CST (1/18) 8:08 AM CST (1/18)
Length of Visible Light 10h 44m
Length of Day
9h 45m
Waning Gibbous, 94% of the Moon is Illuminated
Jan 18
Waning Gibbous
Jan 23
Last Quarter
Jan 30
New
Feb 6
First Quarter
Feb 14
Full

Hourly Weather History & Observations

Time (CST) Temp. Windchill Dew Point Humidity Pressure Visibility Wind Dir Wind Speed Gust Speed Precip Events Conditions
12:15 AM 16.5 °F 8.1 °F 13.5 °F 88% 30.02 in 7.0 mi West 5.8 mph - N/A Snow Light Snow
12:35 AM 16.5 °F 8.1 °F 13.5 °F 88% 30.02 in 10.0 mi WSW 5.8 mph - N/A Snow Light Snow
12:55 AM 16.5 °F 8.1 °F 13.5 °F 88% 30.02 in 10.0 mi SW 5.8 mph - N/A Snow Light Snow
1:15 AM 16.3 °F 6.7 °F 13.5 °F 88% 30.02 in 10.0 mi SW 6.9 mph - N/A   Overcast
1:35 AM 15.6 °F 5.9 °F 12.6 °F 88% 30.02 in 10.0 mi SW 6.9 mph - N/A   Overcast
1:55 AM 12.7 °F 3.6 °F 9.9 °F 88% 30.02 in 10.0 mi SW 5.8 mph - N/A   Scattered Clouds
2:15 AM 12.7 °F 2.4 °F 10.0 °F 89% 30.03 in 10.0 mi WSW 6.9 mph - N/A   Clear
2:35 AM 8.1 °F -2.0 °F 4.6 °F 86% 30.02 in 10.0 mi SW 5.8 mph - N/A   Clear
2:55 AM 9.7 °F -0.1 °F 7.3 °F 90% 30.01 in 10.0 mi SW 5.8 mph - N/A   Clear
3:15 AM 7.0 °F -3.3 °F 4.1 °F 88% 30.00 in 10.0 mi SSW 5.8 mph - N/A   Clear
3:35 AM 4.8 °F -4.3 °F 2.3 °F 89% 30.00 in 10.0 mi SW 4.6 mph - N/A   Clear
3:55 AM 9.7 °F -1.3 °F 7.5 °F 91% 30.01 in 10.0 mi WSW 6.9 mph - N/A   Clear
4:10 AM 10.0 °F -0.9 °F 6.6 °F 86% 30.01 in 10.0 mi SW 6.9 mph - N/A   Clear
4:35 AM 6.1 °F -5.6 °F 3.2 °F 88% 30.01 in 10.0 mi SSW 6.9 mph - N/A   Clear
4:55 AM 4.3 °F -10.0 °F 1.8 °F 89% 30.01 in 10.0 mi SSW 9.2 mph - N/A   Clear
5:15 AM 4.8 °F -8.3 °F 2.1 °F 89% 29.99 in 10.0 mi SSW 8.1 mph - N/A   Clear
5:35 AM 4.3 °F -7.8 °F 1.4 °F 88% 29.99 in 10.0 mi South 6.9 mph - N/A   Clear
5:55 AM 3.9 °F -8.2 °F 1.2 °F 89% 29.98 in 10.0 mi South 6.9 mph - N/A   Clear
6:15 AM 7.7 °F -4.8 °F 5.5 °F 91% 29.98 in 10.0 mi South 8.1 mph - N/A   Clear
6:35 AM 7.3 °F -5.2 °F 5.0 °F 90% 29.97 in 10.0 mi South 8.1 mph - N/A   Clear
6:55 AM 7.5 °F -3.9 °F 5.2 °F 90% 29.97 in 10.0 mi SSE 6.9 mph - N/A   Scattered Clouds
7:15 AM 10.8 °F 0.0 °F 8.2 °F 90% 29.95 in 10.0 mi SSE 6.9 mph - N/A   Overcast
7:35 AM 12.2 °F -0.2 °F 9.5 °F 89% 29.94 in 10.0 mi SSE 9.2 mph - N/A   Scattered Clouds
7:55 AM 13.6 °F 1.6 °F 10.9 °F 89% 29.94 in 10.0 mi SSE 9.2 mph - N/A   Scattered Clouds
8:15 AM 14.4 °F 1.6 °F 11.5 °F 88% 29.94 in 10.0 mi SSE 10.4 mph - N/A   Clear
8:35 AM 15.4 °F 3.8 °F 12.2 °F 87% 29.94 in 10.0 mi South 9.2 mph - N/A   Mostly Cloudy
8:55 AM 16.7 °F 5.3 °F 12.9 °F 85% 29.94 in 10.0 mi SSE 9.2 mph - N/A   Overcast
9:15 AM 17.6 °F 5.7 °F 13.1 °F 83% 29.93 in 10.0 mi SSE 10.4 mph - N/A   Overcast
9:35 AM 18.7 °F 6.3 °F 13.8 °F 81% 29.92 in 10.0 mi SSE 11.5 mph - N/A   Overcast
9:55 AM 19.9 °F 6.2 °F 14.4 °F 79% 29.90 in 10.0 mi SSE 15.0 mph - N/A   Overcast
10:15 AM 20.7 °F 6.1 °F 14.4 °F 77% 29.88 in 10.0 mi SSE 17.3 mph - N/A   Overcast
10:35 AM 20.7 °F 7.1 °F 14.9 °F 78% 29.86 in 10.0 mi SSE 15.0 mph - N/A   Overcast
10:55 AM 21.2 °F 7.8 °F 15.4 °F 78% 29.85 in 10.0 mi SSE 15.0 mph - N/A   Overcast
11:15 AM 21.7 °F 7.1 °F 16.0 °F 78% 29.82 in 10.0 mi SE 18.4 mph - N/A   Overcast
11:35 AM 22.5 °F 8.0 °F 16.3 °F 77% 29.81 in 10.0 mi SE 18.4 mph - N/A   Overcast
11:55 AM 23.0 °F 10.6 °F 16.2 °F 75% 29.78 in 10.0 mi SE 13.8 mph 23.0 mph N/A   Overcast
12:15 PM 23.5 °F 10.3 °F 16.0 °F 73% 29.75 in 10.0 mi SE 16.1 mph 24.2 mph N/A   Overcast
12:35 PM 24.1 °F 10.6 °F 16.0 °F 71% 29.74 in 10.0 mi SE 17.3 mph 23.0 mph N/A   Overcast
12:55 PM 24.8 °F 11.9 °F 16.7 °F 71% 29.73 in 10.0 mi SE 16.1 mph - N/A   Overcast
1:15 PM 25.3 °F 11.4 °F 16.9 °F 70% 29.72 in 10.0 mi SE 19.6 mph 23.0 mph N/A   Overcast
1:35 PM 25.7 °F 13.1 °F 17.1 °F 70% 29.72 in 10.0 mi SE 16.1 mph 20.7 mph N/A   Overcast
1:55 PM 25.7 °F 14.0 °F 18.1 °F 73% 29.72 in 5.0 mi SSE 13.8 mph 20.7 mph N/A Snow Light Snow
2:15 PM 25.7 °F 14.0 °F 20.3 °F 80% 29.72 in 1.5 mi SSE 13.8 mph - N/A Snow Light Snow
2:35 PM 25.5 °F 13.8 °F 22.1 °F 87% 29.72 in 1.5 mi SSE 13.8 mph - N/A Snow Light Snow
2:55 PM 25.0 °F 12.6 °F 22.3 °F 89% 29.72 in 1.0 mi SSE 15.0 mph - N/A Snow Light Snow
3:15 PM 25.2 °F 13.9 °F 22.8 °F 91% 29.72 in 1.2 mi SSE 12.7 mph - N/A Snow Light Snow
3:35 PM 25.2 °F 14.4 °F 23.0 °F 91% 29.72 in 10.0 mi SSE 11.5 mph - N/A Snow Light Snow
3:55 PM 25.5 °F 15.5 °F 23.4 °F 92% 29.72 in 10.0 mi SSE 10.4 mph - N/A   Overcast
4:15 PM 25.7 °F 15.1 °F 23.7 °F 92% 29.72 in 7.0 mi SSE 11.5 mph - N/A   Overcast
4:35 PM 26.1 °F 16.2 °F 24.3 °F 93% 29.72 in 10.0 mi SSE 10.4 mph - N/A   Overcast
4:55 PM 26.6 °F 16.8 °F 24.8 °F 93% 29.73 in 7.0 mi SSE 10.4 mph - N/A Snow Light Snow
5:15 PM 27.1 °F 20.7 °F 25.5 °F 94% 29.73 in 10.0 mi South 5.8 mph - N/A Snow Light Snow
5:35 PM 27.7 °F 19.6 °F 26.2 °F 94% 29.74 in 7.0 mi South 8.1 mph - N/A Snow Light Snow
5:55 PM 28.0 °F 20.0 °F 26.4 °F 94% 29.74 in 10.0 mi South 8.1 mph - N/A   Overcast
6:15 PM 28.4 °F 21.2 °F 26.8 °F 94% 29.74 in 10.0 mi South 6.9 mph - N/A   Overcast
6:35 PM 28.9 °F 21.9 °F 27.3 °F 94% 29.74 in 10.0 mi South 6.9 mph - N/A   Overcast
6:55 PM 29.3 °F 22.3 °F 27.9 °F 94% 29.74 in 10.0 mi SSW 6.9 mph - N/A   Overcast
7:15 PM 30.2 °F 24.3 °F 28.4 °F 93% 29.74 in 4.0 mi SSW 5.8 mph - N/A Snow Light Snow
7:35 PM 30.2 °F 25.4 °F 28.8 °F 94% 29.74 in 7.0 mi SW 4.6 mph - N/A Snow Light Snow
7:55 PM 30.6 °F 23.1 °F 29.1 °F 94% 29.75 in 4.0 mi SW 8.1 mph - N/A Snow Light Snow
8:15 PM 30.4 °F 23.6 °F 29.1 °F 95% 29.75 in 4.0 mi SW 6.9 mph - N/A Snow Light Snow
8:35 PM 30.6 °F 24.7 °F 29.3 °F 95% 29.76 in 4.0 mi WSW 5.8 mph - N/A Snow Light Snow
8:55 PM 31.1 °F 26.4 °F 30.2 °F 96% 29.76 in 5.0 mi West 4.6 mph - N/A Snow Light Snow
9:15 PM 31.6 °F 24.4 °F 30.4 °F 95% 29.77 in 3.0 mi WNW 8.1 mph - N/A Snow Light Snow
9:35 PM 30.7 °F 24.1 °F 29.7 °F 96% 29.77 in 10.0 mi WNW 6.9 mph - N/A   Overcast
9:55 PM 30.6 °F 21.8 °F 29.3 °F 95% 29.78 in 10.0 mi NW 10.4 mph - N/A   Overcast
10:15 PM 29.7 °F 19.6 °F 28.0 °F 94% 29.79 in 10.0 mi NW 12.7 mph - N/A   Overcast
10:35 PM 28.8 °F 20.9 °F 27.0 °F 93% 29.80 in 10.0 mi NW 8.1 mph - N/A   Overcast
10:55 PM 27.5 °F 19.3 °F 25.7 °F 93% 29.81 in 10.0 mi NW 8.1 mph - N/A   Overcast
11:15 PM 26.1 °F 15.6 °F 24.4 °F 94% 29.82 in 10.0 mi NW 11.5 mph - N/A   Overcast
11:35 PM 24.6 °F 12.7 °F 22.8 °F 93% 29.84 in 10.0 mi NW 13.8 mph 19.6 mph N/A   Overcast
11:55 PM 23.9 °F 10.3 °F 21.9 °F 92% 29.85 in 10.0 mi NW 17.3 mph - N/A   Overcast